Preview of NWS' New Version of Forecast
This preview is not operational and should not be used for support decisions.

Regional Weather Roundup (RWR)

Issued by National Weather Service (NWS)

                            
000
ASUS44 KJAN 201210
RWRMS 

MISSISSIPPI HOURLY WEATHER ROUNDUP
NATIONAL WEATHER SERVICE JACKSON MS
700 AM CDT FRI SEP 20 2019

NOTE: "FAIR: INDICATES FEW OR NO CLOUDS BELOW 12,000 FEET WITH NO
SIGNIFICANT WEATHER AND/OR OBSTRUCTIONS TO VISIBILITY.

MSZ001>002-007>008-010>013-018>021-025>028-034>036-201300-
NORTHWEST MISSISSIPPI
  
CITY           SKY/WX    TMP DP  RH WIND       PRES   REMARKS
BATESVILLE       N/A     73  72  94 CALM      30.13R                  
CLARKSDALE       N/A     73  73 100 SE7       30.12R                  
CLEVELAND      CLOUDY    74  74 100 SE12      30.11R                  
GREENWOOD      CLOUDY    76  69  79 SE6       30.12R                  
6HR MIN TEMP:  75; 6HR MAX TEMP:  78;                                

GREENVILLE     CLOUDY    73  71  93 SE6       30.09R                  
6HR MIN TEMP:  72; 6HR MAX TEMP:  74;                                

OLIVE BRANCH   MOCLDY    75  70  83 SE8       30.13R                  
OXFORD         FAIR      72  68  88 SE10      30.16R                  
TUNICA           N/A     72  70  94 SE8       30.12R                  
WINONA         FAIR      71  70  98 SE3       30.14R                  
$$

MSZ003>006-009-014>017-022>024-029>033-037>039-201300-
NORTHEAST MISSISSIPPI
  
CITY           SKY/WX    TMP DP  RH WIND       PRES   REMARKS
ABERDEEN       CLOUDY    70  52  52 SE6       30.20R                  
COLUMBUS AFB   CLOUDY    71  60  67 E6        30.18R                  
6HR MIN TEMP:  70; 6HR MAX TEMP:  73;                                

CORINTH        FAIR      72  59  64 SE7       30.17R                  
GOLDN TRIANGLE CLOUDY    73  61  65 E9        30.18R                  
STARKVILLE     CLOUDY    70  63  78 E5        30.18R                  
TUPELO         CLOUDY    74  60  61 SE7       30.18R                  
6HR MIN TEMP:  73; 6HR MAX TEMP:  79;                                

$$

MSZ040-058-201300-
CENTRAL MISSISSIPPI
  
CITY           SKY/WX    TMP DP  RH WIND       PRES   REMARKS
JACKSON INTL   FAIR      73  67  81 SE10      30.12R                  
6HR MIN TEMP:  73; 6HR MAX TEMP:  75;                                

JACKSON HAWKNS FAIR      73  69  87 SE9       30.12R                  
6HR MIN TEMP:  73; 6HR MAX TEMP:  75;                                

MADISON        FAIR      72  72 100 SE7       30.14R                  
MERIDIAN KEY   FAIR      73  65  75 E8        30.16R                  
6HR MIN TEMP:  73; 6HR MAX TEMP:  76;                                

MERIDIAN NAS   MOCLDY    68  62  81 SE7       30.17R                  
6HR MIN TEMP:  68; 6HR MAX TEMP:  74;                                

RAYMOND        FAIR      73  73 100 E6        30.11R                  
VICKSBURG VKS  SUNNY     73  73 100 SE6       30.09R                  
$$

MSZ059>079-201300-
SOUTH MISSISSIPPI
  
CITY           SKY/WX    TMP DP  RH WIND       PRES   REMARKS
BROOKHAVEN     CLOUDY    73  72  94 N5        30.13R                  
HATTIESBURG    FAIR      70  67  90 CALM      30.13R                  
6HR MIN TEMP:  70; 6HR MAX TEMP:  72;                                

LAUREL         SUNNY     71  67  88 E6        30.14R                  
MCCOMB         FAIR      73  71  93 E5        30.10R                  
6HR MIN TEMP:  73; 6HR MAX TEMP:  75;                                

NATCHEZ        FAIR      73  71  93 SE3       30.09R                  
6HR MIN TEMP:  72; 6HR MAX TEMP:  75;                                

PINE BELT      FAIR      70  67  90 E3        30.15R                  
6HR MIN TEMP:  70; 6HR MAX TEMP:  72;                                

$$

MSZ080>082-201300-
COASTAL MISSISSIPPI
  
CITY           SKY/WX    TMP DP  RH WIND       PRES   REMARKS
BAY ST LOUIS   MOCLDY    75  72  88 NE6       30.08                   
BILOXI         FAIR      75  69  80 E13       30.09R                  
6HR MIN TEMP:  75; 6HR MAX TEMP:  83;                                

PASCAGOULA     FAIR      73  66  78 E6        30.10R                  
6HR MIN TEMP:  73; 6HR MAX TEMP:  76;                                

GULFPORT       FAIR      76  68  76 E9        30.08R                  
6HR MIN TEMP:  76; 6HR MAX TEMP:  83;                                

$$

LAZ007>009-015>016-023>026-201300-
NORTHEAST LOUISIANA
  
CITY           SKY/WX    TMP DP  RH WIND       PRES   REMARKS
BASTROP        PTSUNNY   72  72  99 CALM      30.09R                  
TALLULAH/VBURG FAIR      74  70  87 E3        30.09R                  
6HR MIN TEMP:  73; 6HR MAX TEMP:  77;                                

VIDALIA        FAIR     N/A N/A N/A E5        30.06S                  
$$